Location: Winthrop
(48.4780°N, 120.1850°W)
Time: 23:08:32
(UTC-07:00)

A-11 Canister half - Pass Details

Date: 08 June 2023
Orbit: 1515 x 1684 km, 47.2° (Epoch: 29 September)

Event Time Altitude Azimuth Distance (km) Brightness Sun altitude
Exits shadow 03:37:15 - 249° (WSW) 4,356 10.9 -10.5°
Reaches altitude 10° 03:38:52 10° 249° (WSW) 3,841 10.6 -10.3°
Maximum altitude 03:48:36 77° 165° (SSE) 1,614 9.1 -9.3°
Drops below altitude 10° 03:58:00 10° 82° (E) 3,718 11.8 -8.3°
Sets 04:01:00 0° 81° (E) 4,686 12.4 -8.0°
